This demonstration page uses our WeatherBlox Daily Observations layout. Learn more.

41.55636, -103.73856

Hourly Observations for May 6, 2017

Temp ( °F °C ) Dew Point ( °F °C ) Humidity (%) Winds ( mph kmh ) Pressure ( in mb ) Visibility ( mi km ) Precip ( " mm )
12:53 am 00:53 Clear 50 10 39 3.9 66 66 E 7 11 29.85 1011 10 16.0934 0 0
1:53 am 01:53 Clear 50 10 39 3.9 66 66 E 12 19 29.84 1010 10 16.0934 0 0
2:53 am 02:53 Clear 49 9.4 39 3.9 69 69 E 8 13 29.83 1010 10 16.0934 0 0
3:53 am 03:53 Clear 48 8.9 39 3.9 71 71 E 10 17 29.83 1010 10 16.0934 0 0
4:53 am 04:53 Clear 47 8.3 39 3.9 74 74 E 8 13 29.82 1010 10 16.0934 0 0
5:53 am 05:53 Sunny 46 7.8 38 3.3 73 73 E 3 6 29.82 1010 10 16.0934 0 0
6:53 am 06:53 Sunny 51 10.6 40 4.4 66 66 SE 5 7 29.82 1010 10 16.0934 0 0
7:53 am 07:53 Sunny 55 12.8 42 5.6 62 62 SSE 5 7 29.83 1010 10 16.0934 0 0
8:53 am 08:53 Sunny 63 17.2 43 6.1 48 48 ESE 9 15 29.83 1010 10 16.0934 0 0
9:53 am 09:53 Sunny 70 21.1 45 7.2 41 41 ESE 10 17 29.79 1009 10 16.0934 0 0
10:53 am 10:53 Sunny 76 24.4 49 9.4 39 39 ESE 13 20 29.77 1008 10 16.0934 0 0
11:53 am 11:53 Sunny 85 29.4 37 2.8 18 18 S 17 28 29.72 1007 10 16.0934 0 0
12:53 pm 12:53 Sunny 87 30.6 41 5 20 20 SSE 17 28 29.7 1006 10 16.0934 0 0
1:53 pm 13:53 Sunny 88 31.1 39 3.9 18 18 S 18 30 29.69 1005 10 16.0934 0 0
2:53 pm 14:53 Sunny 88 31.1 40 4.4 18 18 SSE 17 28 29.67 1005 10 16.0934 0 0
3:53 pm 15:53 Sunny 88 31.1 39 3.9 18 18 SE 16 26 29.64 1004 10 16.0934 0 0
4:53 pm 16:53 Sunny 88 31.1 39 3.9 18 18 SE 17 28 29.62 1003 10 16.0934 0 0
5:53 pm 17:53 Sunny 86 30 39 3.9 19 19 SSE 15 24 29.62 1003 10 16.0934 0 0
6:53 pm 18:53 Sunny 82 27.8 43 6.1 25 25 SE 14 22 29.61 1003 10 16.0934 0 0
7:53 pm 19:53 Sunny 75 23.9 43 6.1 32 32 ESE 13 20 29.63 1003 10 16.0934 0 0
8:53 pm 20:53 Clear 69 20.6 43 6.1 39 39 ESE 13 20 29.65 1004 10 16.0934 0 0
9:53 pm 21:53 Clear 72 22.2 42 5.6 34 34 SE 16 26 29.66 1004 10 16.0934 0 0
10:53 pm 22:53 Clear 70 21.1 43 6.1 38 38 SE 13 20 29.64 1004 10 16.0934 0 0
11:53 pm 23:53 Clear 67 19.4 43 6.1 42 42 SSE 14 22 29.64 1004 10 16.0934 0 0

Powered by AerisWeather